Year,Month,Day,Hour,Minute,Value (Times are PST for temperature in C)
2013,04,01,00,00,7.30
2013,04,01,00,01,7.30
2013,04,01,00,02,7.30
2013,04,01,00,03,7.30
2013,04,01,00,04,7.20
2013,04,01,00,05,7.20
2013,04,01,00,06,7.20
2013,04,01,00,07,7.20
2013,04,01,00,08,7.20
2013,04,01,00,09,7.20
2013,04,01,00,10,7.20
2013,04,01,00,11,7.20
2013,04,01,00,12,7.10
2013,04,01,00,13,7.10
2013,04,01,00,14,7.10
2013,04,01,00,15,7.10
2013,04,01,00,16,7.10
2013,04,01,00,17,7.10
2013,04,01,00,18,7.10
2013,04,01,00,19,7.10
2013,04,01,00,20,7.10
2013,04,01,00,21,7.00
2013,04,01,00,22,7.00
2013,04,01,00,23,7.00
2013,04,01,00,24,7.00
2013,04,01,00,25,6.90
2013,04,01,00,26,6.90
2013,04,01,00,27,6.90
2013,04,01,00,28,6.90
2013,04,01,00,29,6.90
2013,04,01,00,30,6.80
2013,04,01,00,31,6.80
2013,04,01,00,32,6.80
2013,04,01,00,33,6.80
2013,04,01,00,34,6.80
2013,04,01,00,35,6.80
2013,04,01,00,36,6.80
2013,04,01,00,37,6.70
2013,04,01,00,38,6.70
2013,04,01,00,39,6.70
2013,04,01,00,40,6.70
2013,04,01,00,41,6.70
2013,04,01,00,42,6.70
2013,04,01,00,43,6.60
2013,04,01,00,44,6.60
2013,04,01,00,45,6.60
2013,04,01,00,46,6.60
2013,04,01,00,47,6.60
2013,04,01,00,48,6.60
2013,04,01,00,49,6.60
2013,04,01,00,50,6.50
2013,04,01,00,51,6.50
2013,04,01,00,52,6.50
2013,04,01,00,53,6.50
2013,04,01,00,54,6.50
2013,04,01,00,55,6.50
2013,04,01,00,56,6.50
2013,04,01,00,57,6.40
2013,04,01,00,58,6.40
2013,04,01,00,59,6.40
2013,04,01,01,00,6.40
2013,04,01,01,01,6.40
2013,04,01,01,02,6.40
2013,04,01,01,03,6.40
2013,04,01,01,04,6.40
2013,04,01,01,05,6.40
2013,04,01,01,06,6.40
2013,04,01,01,07,6.40
2013,04,01,01,08,6.30
2013,04,01,01,09,6.30
2013,04,01,01,10,6.30
2013,04,01,01,11,6.30
2013,04,01,01,12,6.30
2013,04,01,01,13,6.30
2013,04,01,01,14,6.30
2013,04,01,01,15,6.30
2013,04,01,01,16,6.30
2013,04,01,01,17,6.30
2013,04,01,01,18,6.20
2013,04,01,01,19,6.20
2013,04,01,01,20,6.20
2013,04,01,01,21,6.20
2013,04,01,01,22,6.20
2013,04,01,01,23,6.20
2013,04,01,01,24,6.20
2013,04,01,01,25,6.20
2013,04,01,01,26,6.20
2013,04,01,01,27,6.20
2013,04,01,01,28,6.20
2013,04,01,01,29,6.10
2013,04,01,01,30,6.10
2013,04,01,01,31,6.10
2013,04,01,01,32,6.10
2013,04,01,01,33,6.10
2013,04,01,01,34,6.10
2013,04,01,01,35,6.10
2013,04,01,01,36,6.10
2013,04,01,01,37,6.10
2013,04,01,01,38,6.00
2013,04,01,01,39,6.00
2013,04,01,01,40,6.00
2013,04,01,01,41,6.00
2013,04,01,01,42,6.00
2013,04,01,01,43,6.00
2013,04,01,01,44,5.90
2013,04,01,01,45,5.90
2013,04,01,01,46,5.90
2013,04,01,01,47,5.90
2013,04,01,01,48,5.90
2013,04,01,01,49,5.90
2013,04,01,01,50,5.90
2013,04,01,01,51,5.90
2013,04,01,01,52,5.90
2013,04,01,01,53,5.80
2013,04,01,01,54,5.80
2013,04,01,01,55,5.80
2013,04,01,01,56,5.80
2013,04,01,01,57,5.80
2013,04,01,01,58,5.80
2013,04,01,01,59,5.80
2013,04,01,02,00,5.80
2013,04,01,02,01,5.80
2013,04,01,02,02,5.80
2013,04,01,02,03,5.80
2013,04,01,02,04,5.80
2013,04,01,02,05,5.70
2013,04,01,02,06,5.70
2013,04,01,02,07,5.70
2013,04,01,02,08,5.70
2013,04,01,02,09,5.70
2013,04,01,02,10,5.70
2013,04,01,02,11,5.70
2013,04,01,02,12,5.70
2013,04,01,02,13,5.70
2013,04,01,02,14,5.60
2013,04,01,02,15,5.60
2013,04,01,02,16,5.60
2013,04,01,02,17,5.60
2013,04,01,02,18,5.60
2013,04,01,02,19,5.60
2013,04,01,02,20,5.60
2013,04,01,02,21,5.60
2013,04,01,02,22,5.60
2013,04,01,02,23,5.60
2013,04,01,02,24,5.60
2013,04,01,02,25,5.50
2013,04,01,02,26,5.50
2013,04,01,02,27,5.50
2013,04,01,02,28,5.50
2013,04,01,02,29,5.50
2013,04,01,02,30,5.50
2013,04,01,02,31,5.50
2013,04,01,02,32,5.50
2013,04,01,02,33,5.40
2013,04,01,02,34,5.40
2013,04,01,02,35,5.40
2013,04,01,02,36,5.40
2013,04,01,02,37,5.40
2013,04,01,02,38,5.40
2013,04,01,02,39,5.40
2013,04,01,02,40,5.40
2013,04,01,02,41,5.40
2013,04,01,02,42,5.40
2013,04,01,02,43,5.40
2013,04,01,02,44,5.40
2013,04,01,02,45,5.40
2013,04,01,02,46,5.40
2013,04,01,02,47,5.40
2013,04,01,02,48,5.40
2013,04,01,02,49,5.40
2013,04,01,02,50,5.40
2013,04,01,02,51,5.30
2013,04,01,02,52,5.30
2013,04,01,02,53,5.30
2013,04,01,02,54,5.30
2013,04,01,02,55,5.30
2013,04,01,02,56,5.30
2013,04,01,02,57,5.30
2013,04,01,02,58,5.30
2013,04,01,02,59,5.30
2013,04,01,03,00,5.30
2013,04,01,03,01,5.30
2013,04,01,03,02,5.30
2013,04,01,03,03,5.30
2013,04,01,03,04,5.20
2013,04,01,03,05,5.20
2013,04,01,03,06,5.20
2013,04,01,03,07,5.20
2013,04,01,03,08,5.20
2013,04,01,03,09,5.20
2013,04,01,03,10,5.20
2013,04,01,03,11,5.20
2013,04,01,03,12,5.20
2013,04,01,03,13,5.20
2013,04,01,03,14,5.10
2013,04,01,03,15,5.10
2013,04,01,03,16,5.10
2013,04,01,03,17,5.10
2013,04,01,03,18,5.10
2013,04,01,03,19,5.10
2013,04,01,03,20,5.10
2013,04,01,03,21,5.00
2013,04,01,03,22,5.00
2013,04,01,03,23,5.00
2013,04,01,03,24,5.00
2013,04,01,03,25,5.00
2013,04,01,03,26,5.00
2013,04,01,03,27,4.90
2013,04,01,03,28,4.90
2013,04,01,03,29,4.90
2013,04,01,03,30,4.90
2013,04,01,03,31,4.90
2013,04,01,03,32,4.90
2013,04,01,03,33,4.90
2013,04,01,03,34,4.90
2013,04,01,03,35,4.90
2013,04,01,03,36,4.90
2013,04,01,03,37,4.90
2013,04,01,03,38,4.90
2013,04,01,03,39,4.90
2013,04,01,03,40,4.90
2013,04,01,03,41,4.90
2013,04,01,03,42,4.80
2013,04,01,03,43,4.80
2013,04,01,03,44,4.80
2013,04,01,03,45,4.80
2013,04,01,03,46,4.80
2013,04,01,03,47,4.80
2013,04,01,03,48,4.80
2013,04,01,03,49,4.80
2013,04,01,03,50,4.80
2013,04,01,03,51,4.80
2013,04,01,03,52,4.80
2013,04,01,03,53,4.80
2013,04,01,03,54,4.80
2013,04,01,03,55,4.80
2013,04,01,03,56,4.80
2013,04,01,03,57,4.80
2013,04,01,03,58,4.70
2013,04,01,03,59,4.70
2013,04,01,04,00,4.70
2013,04,01,04,01,4.70
2013,04,01,04,02,4.80
2013,04,01,04,03,4.80
2013,04,01,04,04,4.80
2013,04,01,04,05,4.80
2013,04,01,04,06,4.80
2013,04,01,04,07,4.80
2013,04,01,04,08,4.80
2013,04,01,04,09,4.80
2013,04,01,04,10,4.80
2013,04,01,04,11,4.80
2013,04,01,04,12,4.80
2013,04,01,04,13,4.80
2013,04,01,04,14,4.80
2013,04,01,04,15,4.80
2013,04,01,04,16,4.80
2013,04,01,04,17,4.80
2013,04,01,04,18,4.80
2013,04,01,04,19,4.80
2013,04,01,04,20,4.80
2013,04,01,04,21,4.70
2013,04,01,04,22,4.70
2013,04,01,04,23,4.70
2013,04,01,04,24,4.70
2013,04,01,04,25,4.70
2013,04,01,04,26,4.70
2013,04,01,04,27,4.70
2013,04,01,04,28,4.70
2013,04,01,04,29,4.70
2013,04,01,04,30,4.70
2013,04,01,04,31,4.70
2013,04,01,04,32,4.60
2013,04,01,04,33,4.60
2013,04,01,04,34,4.60
2013,04,01,04,35,4.60
2013,04,01,04,36,4.60
2013,04,01,04,37,4.60
2013,04,01,04,38,4.60
2013,04,01,04,39,4.60
2013,04,01,04,40,4.60
2013,04,01,04,41,4.50
2013,04,01,04,42,4.50
2013,04,01,04,43,4.50
2013,04,01,04,44,4.50
2013,04,01,04,45,4.50
2013,04,01,04,46,4.40
2013,04,01,04,47,4.40
2013,04,01,04,48,4.40
2013,04,01,04,49,4.40
2013,04,01,04,50,4.40
2013,04,01,04,51,4.40
2013,04,01,04,52,4.40
2013,04,01,04,53,4.40
2013,04,01,04,54,4.40
2013,04,01,04,55,4.30
2013,04,01,04,56,4.30
2013,04,01,04,57,4.30
2013,04,01,04,58,4.30
2013,04,01,04,59,4.30
2013,04,01,05,00,4.30
2013,04,01,05,01,4.30
2013,04,01,05,02,4.30
2013,04,01,05,03,4.30
2013,04,01,05,04,4.30
2013,04,01,05,05,4.30
2013,04,01,05,06,4.30
2013,04,01,05,07,4.30
2013,04,01,05,08,4.30
2013,04,01,05,09,4.30
2013,04,01,05,10,4.30
2013,04,01,05,11,4.20
2013,04,01,05,12,4.20
2013,04,01,05,13,4.20
2013,04,01,05,14,4.20
2013,04,01,05,15,4.20
2013,04,01,05,16,4.20
2013,04,01,05,17,4.20
2013,04,01,05,18,4.20
2013,04,01,05,19,4.20
2013,04,01,05,20,4.20
2013,04,01,05,21,4.20
2013,04,01,05,22,4.20
2013,04,01,05,23,4.20
2013,04,01,05,24,4.10
2013,04,01,05,25,4.10
2013,04,01,05,26,4.10
2013,04,01,05,27,4.10
2013,04,01,05,28,4.10
2013,04,01,05,29,4.10
2013,04,01,05,30,4.10
2013,04,01,05,31,4.10
2013,04,01,05,32,4.10
2013,04,01,05,33,4.10
2013,04,01,05,34,4.10
2013,04,01,05,35,4.00
2013,04,01,05,36,4.00
2013,04,01,05,37,4.00
2013,04,01,05,38,4.00
2013,04,01,05,39,4.00
2013,04,01,05,40,4.00
2013,04,01,05,41,4.00
2013,04,01,05,42,4.00
2013,04,01,05,43,4.00
2013,04,01,05,44,4.00
2013,04,01,05,45,4.00
2013,04,01,05,46,4.00
2013,04,01,05,47,4.00
2013,04,01,05,48,4.00
2013,04,01,05,49,4.00
2013,04,01,05,50,3.90
2013,04,01,05,51,3.90
2013,04,01,05,52,3.90
2013,04,01,05,53,3.90
2013,04,01,05,54,3.90
2013,04,01,05,55,3.90
2013,04,01,05,56,3.90
2013,04,01,05,57,3.90
2013,04,01,05,58,3.90
2013,04,01,05,59,3.90
2013,04,01,06,00,3.90
2013,04,01,06,01,3.90
2013,04,01,06,02,3.90
2013,04,01,06,03,3.90
2013,04,01,06,04,3.90
2013,04,01,06,05,3.90
2013,04,01,06,06,3.90
2013,04,01,06,07,3.90
2013,04,01,06,08,3.90
2013,04,01,06,09,3.90
2013,04,01,06,10,3.90
2013,04,01,06,11,3.90
2013,04,01,06,12,3.80
2013,04,01,06,13,3.80
2013,04,01,06,14,3.80
2013,04,01,06,15,3.80
2013,04,01,06,16,3.80
2013,04,01,06,17,3.80
2013,04,01,06,18,3.80
2013,04,01,06,19,3.80
2013,04,01,06,20,3.80
2013,04,01,06,21,3.80
2013,04,01,06,22,3.80
2013,04,01,06,23,3.80
2013,04,01,06,24,3.80
2013,04,01,06,25,3.80
2013,04,01,06,26,3.80
2013,04,01,06,27,3.80
2013,04,01,06,28,3.80
2013,04,01,06,29,3.80
2013,04,01,06,30,3.80
2013,04,01,06,31,3.80
2013,04,01,06,32,3.80
2013,04,01,06,33,3.80
2013,04,01,06,34,3.70
2013,04,01,06,35,3.70
2013,04,01,06,36,3.70
2013,04,01,06,37,3.70
2013,04,01,06,38,3.70
2013,04,01,06,39,3.70
2013,04,01,06,40,3.70
2013,04,01,06,41,3.70
2013,04,01,06,42,3.70
2013,04,01,06,43,3.70
2013,04,01,06,44,3.70
2013,04,01,06,45,3.70
2013,04,01,06,46,3.60
2013,04,01,06,47,3.60
2013,04,01,06,48,3.60
2013,04,01,06,49,3.60
2013,04,01,06,50,3.60
2013,04,01,06,51,3.60
2013,04,01,06,52,3.60
2013,04,01,06,53,3.60
2013,04,01,06,54,3.60
2013,04,01,06,55,3.60
2013,04,01,06,56,3.60
2013,04,01,06,57,3.60
2013,04,01,06,58,3.60
2013,04,01,06,59,3.60
2013,04,01,07,00,3.60
2013,04,01,07,01,3.60
2013,04,01,07,02,3.60
2013,04,01,07,03,3.60
2013,04,01,07,04,3.60
2013,04,01,07,05,3.60
2013,04,01,07,06,3.60
2013,04,01,07,07,3.60
2013,04,01,07,08,3.50
2013,04,01,07,09,3.50
2013,04,01,07,10,3.50
2013,04,01,07,11,3.50
2013,04,01,07,12,3.50
2013,04,01,07,13,3.50
2013,04,01,07,14,3.60
2013,04,01,07,15,3.60
2013,04,01,07,16,3.60
2013,04,01,07,17,3.70
2013,04,01,07,18,3.70
2013,04,01,07,19,3.70
2013,04,01,07,20,3.70
2013,04,01,07,21,3.70
2013,04,01,07,22,3.80
2013,04,01,07,23,3.80
2013,04,01,07,24,3.80
2013,04,01,07,25,3.80
2013,04,01,07,26,3.80
2013,04,01,07,27,3.80
2013,04,01,07,28,3.80
2013,04,01,07,29,3.90
2013,04,01,07,30,3.90
2013,04,01,07,31,3.90
2013,04,01,07,32,3.90
2013,04,01,07,33,4.00
2013,04,01,07,34,4.00
2013,04,01,07,35,4.00
2013,04,01,07,36,4.10
2013,04,01,07,37,4.10
2013,04,01,07,38,4.10
2013,04,01,07,39,4.10
2013,04,01,07,40,4.20
2013,04,01,07,41,4.20
2013,04,01,07,42,4.20
2013,04,01,07,43,4.20
2013,04,01,07,44,4.20
2013,04,01,07,45,4.20
2013,04,01,07,46,4.20
2013,04,01,07,47,4.30
2013,04,01,07,48,4.30
2013,04,01,07,49,4.40
2013,04,01,07,50,4.50
2013,04,01,07,51,4.60
2013,04,01,07,52,4.60
2013,04,01,07,53,4.70
2013,04,01,07,54,4.80
2013,04,01,07,55,4.90
2013,04,01,07,56,4.90
2013,04,01,07,57,5.00
2013,04,01,07,58,5.00
2013,04,01,07,59,5.10
2013,04,01,08,00,5.10
2013,04,01,08,01,5.20
2013,04,01,08,02,5.30
2013,04,01,08,03,5.40
2013,04,01,08,04,5.40
2013,04,01,08,05,5.50
2013,04,01,08,06,5.60
2013,04,01,08,07,5.70
2013,04,01,08,08,5.70
2013,04,01,08,09,5.70
2013,04,01,08,10,5.70
2013,04,01,08,11,5.70
2013,04,01,08,12,5.70
2013,04,01,08,13,5.80
2013,04,01,08,14,5.80
2013,04,01,08,15,5.80
2013,04,01,08,16,5.80
2013,04,01,08,17,5.90
2013,04,01,08,18,6.00
2013,04,01,08,19,6.00
2013,04,01,08,20,6.10
2013,04,01,08,21,6.10
2013,04,01,08,22,6.20
2013,04,01,08,23,6.20
2013,04,01,08,24,6.20
2013,04,01,08,25,6.20
2013,04,01,08,26,6.20
2013,04,01,08,27,6.20
2013,04,01,08,28,6.30
2013,04,01,08,29,6.30
2013,04,01,08,30,6.30
2013,04,01,08,31,6.40
2013,04,01,08,32,6.40
2013,04,01,08,33,6.40
2013,04,01,08,34,6.40
2013,04,01,08,35,6.50
2013,04,01,08,36,6.50
2013,04,01,08,37,6.60
2013,04,01,08,38,6.60
2013,04,01,08,39,6.60
2013,04,01,08,40,6.70
2013,04,01,08,41,6.70
2013,04,01,08,42,6.80
2013,04,01,08,43,6.80
2013,04,01,08,44,6.90
2013,04,01,08,45,7.00
2013,04,01,08,46,7.00
2013,04,01,08,47,7.10
2013,04,01,08,48,7.10
2013,04,01,08,49,7.20
2013,04,01,08,50,7.30
2013,04,01,08,51,7.30
2013,04,01,08,52,7.40
2013,04,01,08,53,7.50
2013,04,01,08,54,7.50
2013,04,01,08,55,7.60
2013,04,01,08,56,7.70
2013,04,01,08,57,7.80
2013,04,01,08,58,7.90
2013,04,01,08,59,8.00
2013,04,01,09,00,8.10
2013,04,01,09,01,8.10
2013,04,01,09,02,8.20
2013,04,01,09,03,8.30
2013,04,01,09,04,8.30
2013,04,01,09,05,8.40
2013,04,01,09,06,8.50
2013,04,01,09,07,8.50
2013,04,01,09,08,8.60
2013,04,01,09,09,8.70
2013,04,01,09,10,8.70
2013,04,01,09,11,8.80
2013,04,01,09,12,8.90
2013,04,01,09,13,8.90
2013,04,01,09,14,9.00
2013,04,01,09,15,9.10
2013,04,01,09,16,9.10
2013,04,01,09,17,9.20
2013,04,01,09,18,9.30
2013,04,01,09,19,9.40
2013,04,01,09,20,9.40
2013,04,01,09,21,9.50
2013,04,01,09,22,9.60
2013,04,01,09,23,9.70
2013,04,01,09,24,9.70
2013,04,01,09,25,9.80
2013,04,01,09,26,9.80
2013,04,01,09,27,9.90
2013,04,01,09,28,9.90
2013,04,01,09,29,10.00
2013,04,01,09,30,10.00
2013,04,01,09,31,10.10
2013,04,01,09,32,10.20
2013,04,01,09,33,10.20
2013,04,01,09,34,10.30
2013,04,01,09,35,10.40
2013,04,01,09,36,10.40
2013,04,01,09,37,10.50
2013,04,01,09,38,10.50
2013,04,01,09,39,10.60
2013,04,01,09,40,10.70
2013,04,01,09,41,10.80
2013,04,01,09,42,10.80
2013,04,01,09,43,10.90
2013,04,01,09,44,11.00
2013,04,01,09,45,11.10
2013,04,01,09,46,11.20
2013,04,01,09,47,11.30
2013,04,01,09,48,11.50
2013,04,01,09,49,11.60
2013,04,01,09,50,11.80
2013,04,01,09,51,12.00
2013,04,01,09,52,12.10
2013,04,01,09,53,12.30
2013,04,01,09,54,12.40
2013,04,01,09,55,12.50
2013,04,01,09,56,12.70
2013,04,01,09,57,12.80
2013,04,01,09,58,13.00
2013,04,01,09,59,13.10
2013,04,01,10,00,13.20
2013,04,01,10,01,13.40
2013,04,01,10,02,13.50
2013,04,01,10,03,13.60
2013,04,01,10,04,13.70
2013,04,01,10,05,13.80
2013,04,01,10,06,13.90
2013,04,01,10,07,14.00
2013,04,01,10,08,14.10
2013,04,01,10,09,14.10
2013,04,01,10,10,14.20
2013,04,01,10,11,14.20
2013,04,01,10,12,14.20
2013,04,01,10,13,14.20
2013,04,01,10,14,14.20
2013,04,01,10,15,14.20
2013,04,01,10,16,14.30
2013,04,01,10,17,14.30
2013,04,01,10,18,14.40
2013,04,01,10,19,14.40
2013,04,01,10,20,14.40
2013,04,01,10,21,14.40
2013,04,01,10,22,14.40
2013,04,01,10,23,14.50
2013,04,01,10,24,14.50
2013,04,01,10,25,14.60
2013,04,01,10,26,14.60
2013,04,01,10,27,14.60
2013,04,01,10,28,14.60
2013,04,01,10,29,14.60
2013,04,01,10,30,14.60
2013,04,01,10,31,14.60
2013,04,01,10,32,14.60
2013,04,01,10,33,14.60
2013,04,01,10,34,14.60
2013,04,01,10,35,14.50
2013,04,01,10,36,14.50
2013,04,01,10,37,14.60
2013,04,01,10,38,14.60
2013,04,01,10,39,14.60
2013,04,01,10,40,14.60
2013,04,01,10,41,14.70
2013,04,01,10,42,14.70
2013,04,01,10,43,14.70
2013,04,01,10,44,14.70
2013,04,01,10,45,14.70
2013,04,01,10,46,14.80
2013,04,01,10,47,14.80
2013,04,01,10,48,14.90
2013,04,01,10,49,14.90
2013,04,01,10,50,14.90
2013,04,01,10,51,14.90
2013,04,01,10,52,14.90
2013,04,01,10,53,15.00
2013,04,01,10,54,15.00
2013,04,01,10,55,15.00
2013,04,01,10,56,15.10
2013,04,01,10,57,15.10
2013,04,01,10,58,15.10
2013,04,01,10,59,15.20
2013,04,01,11,00,15.20
2013,04,01,11,01,15.20
2013,04,01,11,02,15.20
2013,04,01,11,03,15.20
2013,04,01,11,04,15.20
2013,04,01,11,05,15.20
2013,04,01,11,06,15.20
2013,04,01,11,07,15.20
2013,04,01,11,08,15.20
2013,04,01,11,09,15.20
2013,04,01,11,10,15.20
2013,04,01,11,11,15.20
2013,04,01,11,12,15.10
2013,04,01,11,13,15.10
2013,04,01,11,14,15.10
2013,04,01,11,15,15.20
2013,04,01,11,16,15.20
2013,04,01,11,17,15.30
2013,04,01,11,18,15.30
2013,04,01,11,19,15.40
2013,04,01,11,20,15.50
2013,04,01,11,21,15.50
2013,04,01,11,22,15.60
2013,04,01,11,23,15.60
2013,04,01,11,24,15.60
2013,04,01,11,25,15.60
2013,04,01,11,26,15.50
2013,04,01,11,27,15.50
2013,04,01,11,28,15.50
2013,04,01,11,29,15.40
2013,04,01,11,30,15.40
2013,04,01,11,31,15.40
2013,04,01,11,32,15.40
2013,04,01,11,33,15.40
2013,04,01,11,34,15.50
2013,04,01,11,35,15.50
2013,04,01,11,36,15.50
2013,04,01,11,37,15.60
2013,04,01,11,38,15.60
2013,04,01,11,39,15.60
2013,04,01,11,40,15.70
2013,04,01,11,41,15.70
2013,04,01,11,42,15.70
2013,04,01,11,43,15.70
2013,04,01,11,44,15.70
2013,04,01,11,45,15.70
2013,04,01,11,46,15.60
2013,04,01,11,47,15.60
2013,04,01,11,48,15.60
2013,04,01,11,49,15.70
2013,04,01,11,50,15.70
2013,04,01,11,51,15.80
2013,04,01,11,52,15.80
2013,04,01,11,53,15.90
2013,04,01,11,54,16.00
2013,04,01,11,55,16.00
2013,04,01,11,56,16.00
2013,04,01,11,57,16.10
2013,04,01,11,58,16.10
2013,04,01,11,59,16.20
2013,04,01,12,00,16.20
2013,04,01,12,01,16.10
2013,04,01,12,02,16.10
2013,04,01,12,03,16.10
2013,04,01,12,04,16.20
2013,04,01,12,05,16.20
2013,04,01,12,06,16.20
2013,04,01,12,07,16.30
2013,04,01,12,08,16.40
2013,04,01,12,09,16.40
2013,04,01,12,10,16.40
2013,04,01,12,11,16.50
2013,04,01,12,12,16.50
2013,04,01,12,13,16.40
2013,04,01,12,14,16.40
2013,04,01,12,15,16.40
2013,04,01,12,16,16.30
2013,04,01,12,17,16.40
2013,04,01,12,18,16.40
2013,04,01,12,19,16.40
2013,04,01,12,20,16.50
2013,04,01,12,21,16.50
2013,04,01,12,22,16.50
2013,04,01,12,23,16.50
2013,04,01,12,24,16.50
2013,04,01,12,25,16.60
2013,04,01,12,26,16.60
2013,04,01,12,27,16.60
2013,04,01,12,28,16.60
2013,04,01,12,29,16.70
2013,04,01,12,30,16.60
2013,04,01,12,31,16.60
2013,04,01,12,32,16.60
2013,04,01,12,33,16.70
2013,04,01,12,34,16.70
2013,04,01,12,35,16.70
2013,04,01,12,36,16.70
2013,04,01,12,37,16.70
2013,04,01,12,38,16.70
2013,04,01,12,39,16.60
2013,04,01,12,40,16.50
2013,04,01,12,41,16.40
2013,04,01,12,42,16.40
2013,04,01,12,43,16.40
2013,04,01,12,44,16.40
2013,04,01,12,45,16.40
2013,04,01,12,46,16.40
2013,04,01,12,47,16.40
2013,04,01,12,48,16.40
2013,04,01,12,49,16.40
2013,04,01,12,50,16.40
2013,04,01,12,51,16.40
2013,04,01,12,52,16.40
2013,04,01,12,53,16.30
2013,04,01,12,54,16.30
2013,04,01,12,55,16.20
2013,04,01,12,56,16.20
2013,04,01,12,57,16.20
2013,04,01,12,58,16.20
2013,04,01,12,59,16.10
2013,04,01,13,00,16.10
2013,04,01,13,01,16.10
2013,04,01,13,02,16.10
2013,04,01,13,03,16.00
2013,04,01,13,04,16.00
2013,04,01,13,05,16.10
2013,04,01,13,06,16.10
2013,04,01,13,07,16.10
2013,04,01,13,08,16.10
2013,04,01,13,09,16.20
2013,04,01,13,10,16.20
2013,04,01,13,11,16.20
2013,04,01,13,12,16.20
2013,04,01,13,13,16.30
2013,04,01,13,14,16.30
2013,04,01,13,15,16.30
2013,04,01,13,16,16.30
2013,04,01,13,17,16.30
2013,04,01,13,18,16.30
2013,04,01,13,19,16.30
2013,04,01,13,20,16.20
2013,04,01,13,21,16.20
2013,04,01,13,22,16.20
2013,04,01,13,23,16.30
2013,04,01,13,24,16.30
2013,04,01,13,25,16.30
2013,04,01,13,26,16.40
2013,04,01,13,27,16.50
2013,04,01,13,28,16.50
2013,04,01,13,29,16.60
2013,04,01,13,30,16.60
2013,04,01,13,31,16.70
2013,04,01,13,32,16.70
2013,04,01,13,33,16.70
2013,04,01,13,34,16.70
2013,04,01,13,35,16.70
2013,04,01,13,36,16.80
2013,04,01,13,37,16.80
2013,04,01,13,38,16.80
2013,04,01,13,39,16.80
2013,04,01,13,40,16.80
2013,04,01,13,41,16.80
2013,04,01,13,42,16.80
2013,04,01,13,43,16.80
2013,04,01,13,44,16.80
2013,04,01,13,45,16.80
2013,04,01,13,46,16.80
2013,04,01,13,47,16.80
2013,04,01,13,48,16.80
2013,04,01,13,49,16.70
2013,04,01,13,50,16.60
2013,04,01,13,51,16.60
2013,04,01,13,52,16.50
2013,04,01,13,53,16.40
2013,04,01,13,54,16.40
2013,04,01,13,55,16.40
2013,04,01,13,56,16.40
2013,04,01,13,57,16.40
2013,04,01,13,58,16.30
2013,04,01,13,59,16.30
2013,04,01,14,00,16.30
2013,04,01,14,01,16.30
2013,04,01,14,02,16.30
2013,04,01,14,03,16.30
2013,04,01,14,04,16.30
2013,04,01,14,05,16.30
2013,04,01,14,06,16.30
2013,04,01,14,07,16.20
2013,04,01,14,08,16.30
2013,04,01,14,09,16.30
2013,04,01,14,10,16.30
2013,04,01,14,11,16.30
2013,04,01,14,12,16.30
2013,04,01,14,13,16.40
2013,04,01,14,14,16.40
2013,04,01,14,15,16.40
2013,04,01,14,16,16.30
2013,04,01,14,17,16.40
2013,04,01,14,18,16.40
2013,04,01,14,19,16.40
2013,04,01,14,20,16.40
2013,04,01,14,21,16.30
2013,04,01,14,22,16.30
2013,04,01,14,23,16.20
2013,04,01,14,24,16.20
2013,04,01,14,25,16.10
2013,04,01,14,26,16.10
2013,04,01,14,27,16.00
2013,04,01,14,28,16.00
2013,04,01,14,29,15.90
2013,04,01,14,30,15.80
2013,04,01,14,31,15.80
2013,04,01,14,32,15.80
2013,04,01,14,33,15.80
2013,04,01,14,34,15.70
2013,04,01,14,35,15.70
2013,04,01,14,36,15.70
2013,04,01,14,37,15.70
2013,04,01,14,38,15.70
2013,04,01,14,39,15.70
2013,04,01,14,40,15.60
2013,04,01,14,41,15.70
2013,04,01,14,42,15.70
2013,04,01,14,43,15.70
2013,04,01,14,44,15.70
2013,04,01,14,45,15.70
2013,04,01,14,46,15.70
2013,04,01,14,47,15.70
2013,04,01,14,48,15.60
2013,04,01,14,49,15.50
2013,04,01,14,50,15.40
2013,04,01,14,51,15.40
2013,04,01,14,52,15.30
2013,04,01,14,53,15.20
2013,04,01,14,54,15.20
2013,04,01,14,55,15.10
2013,04,01,14,56,15.00
2013,04,01,14,57,15.00
2013,04,01,14,58,14.90
2013,04,01,14,59,14.90
2013,04,01,15,00,14.80
2013,04,01,15,01,14.80
2013,04,01,15,02,14.70
2013,04,01,15,03,14.70
2013,04,01,15,04,14.60
2013,04,01,15,05,14.60
2013,04,01,15,06,14.50
2013,04,01,15,07,14.50
2013,04,01,15,08,14.50
2013,04,01,15,09,14.40
2013,04,01,15,10,14.40
2013,04,01,15,11,14.40
2013,04,01,15,12,14.40
2013,04,01,15,13,14.50
2013,04,01,15,14,14.50
2013,04,01,15,15,14.50
2013,04,01,15,16,14.50
2013,04,01,15,17,14.50
2013,04,01,15,18,14.50
2013,04,01,15,19,14.50
2013,04,01,15,20,14.40
2013,04,01,15,21,14.40
2013,04,01,15,22,14.30
2013,04,01,15,23,14.30
2013,04,01,15,24,14.30
2013,04,01,15,25,14.30
2013,04,01,15,26,14.30
2013,04,01,15,27,14.30
2013,04,01,15,28,14.30
2013,04,01,15,29,14.20
2013,04,01,15,30,14.20
2013,04,01,15,31,14.20
2013,04,01,15,32,14.30
2013,04,01,15,33,14.30
2013,04,01,15,34,14.30
2013,04,01,15,35,14.30
2013,04,01,15,36,14.30
2013,04,01,15,37,14.30
2013,04,01,15,38,14.30
2013,04,01,15,39,14.20
2013,04,01,15,40,14.20
2013,04,01,15,41,14.20
2013,04,01,15,42,14.20
2013,04,01,15,43,14.20
2013,04,01,15,44,14.30
2013,04,01,15,45,14.30
2013,04,01,15,46,14.30
2013,04,01,15,47,14.40
2013,04,01,15,48,14.40
2013,04,01,15,49,14.50
2013,04,01,15,50,14.50
2013,04,01,15,51,14.60
2013,04,01,15,52,14.60
2013,04,01,15,53,14.60
2013,04,01,15,54,14.60
2013,04,01,15,55,14.50
2013,04,01,15,56,14.40
2013,04,01,15,57,14.40
2013,04,01,15,58,14.30
2013,04,01,15,59,14.30
2013,04,01,16,00,14.30
2013,04,01,16,01,14.30
2013,04,01,16,02,14.30
2013,04,01,16,03,14.40
2013,04,01,16,04,14.40
2013,04,01,16,05,14.50
2013,04,01,16,06,14.60
2013,04,01,16,07,14.60
2013,04,01,16,08,14.60
2013,04,01,16,09,14.70
2013,04,01,16,10,14.70
2013,04,01,16,11,14.70
2013,04,01,16,12,14.70
2013,04,01,16,13,14.80
2013,04,01,16,14,14.80
2013,04,01,16,15,14.80
2013,04,01,16,16,14.80
2013,04,01,16,17,14.90
2013,04,01,16,18,14.90
2013,04,01,16,19,14.90
2013,04,01,16,20,15.00
2013,04,01,16,21,15.00
2013,04,01,16,22,15.10
2013,04,01,16,23,15.10
2013,04,01,16,24,15.10
2013,04,01,16,25,15.10
2013,04,01,16,26,15.10
2013,04,01,16,27,15.10
2013,04,01,16,28,15.10
2013,04,01,16,29,15.10
2013,04,01,16,30,15.10
2013,04,01,16,31,15.10
2013,04,01,16,32,15.10
2013,04,01,16,33,15.20
2013,04,01,16,34,15.20
2013,04,01,16,35,15.20
2013,04,01,16,36,15.20
2013,04,01,16,37,15.20
2013,04,01,16,38,15.20
2013,04,01,16,39,15.20
2013,04,01,16,40,15.20
2013,04,01,16,41,15.20
2013,04,01,16,42,15.30
2013,04,01,16,43,15.30
2013,04,01,16,44,15.30
2013,04,01,16,45,15.40
2013,04,01,16,46,15.40
2013,04,01,16,47,15.40
2013,04,01,16,48,15.40
2013,04,01,16,49,15.40
2013,04,01,16,50,15.40
2013,04,01,16,51,15.50
2013,04,01,16,52,15.50
2013,04,01,16,53,15.50
2013,04,01,16,54,15.60
2013,04,01,16,55,15.60
2013,04,01,16,56,15.60
2013,04,01,16,57,15.70
2013,04,01,16,58,15.70
2013,04,01,16,59,15.80
2013,04,01,17,00,15.80
2013,04,01,17,01,15.90
2013,04,01,17,02,15.90
2013,04,01,17,03,15.90
2013,04,01,17,04,15.80
2013,04,01,17,05,15.90
2013,04,01,17,06,15.90
2013,04,01,17,07,15.90
2013,04,01,17,08,15.90
2013,04,01,17,09,15.90
2013,04,01,17,10,15.90
2013,04,01,17,11,15.90
2013,04,01,17,12,15.90
2013,04,01,17,13,15.90
2013,04,01,17,14,16.00
2013,04,01,17,15,16.00
2013,04,01,17,16,16.10
2013,04,01,17,17,16.10
2013,04,01,17,18,16.20
2013,04,01,17,19,16.20
2013,04,01,17,20,16.30
2013,04,01,17,21,16.30
2013,04,01,17,22,16.40
2013,04,01,17,23,16.50
2013,04,01,17,24,16.60
2013,04,01,17,25,16.60
2013,04,01,17,26,16.70
2013,04,01,17,27,16.70
2013,04,01,17,28,16.80
2013,04,01,17,29,16.80
2013,04,01,17,30,16.90
2013,04,01,17,31,16.90
2013,04,01,17,32,17.00
2013,04,01,17,33,17.00
2013,04,01,17,34,17.00
2013,04,01,17,35,17.10
2013,04,01,17,36,17.10
2013,04,01,17,37,17.10
2013,04,01,17,38,17.10
2013,04,01,17,39,17.10
2013,04,01,17,40,17.20
2013,04,01,17,41,17.20
2013,04,01,17,42,17.20
2013,04,01,17,43,17.20
2013,04,01,17,44,17.20